CZ-6A DEB, 60678

Orbit data source: Space-Track

CZ-6A DEB, 60678 is space debris in LEO originally from a launch on Tue, 06 Aug 2024 UTC launched from the Taiyaun Space Center, China (TSC). Debris objects in space refer to the collection of defunct objects orbiting the Earth. Examples of debris include non-operational satellites, rocket bodies, and fragments generated from explosions, collisions, or faulty payload assembly.

Loading next visibility...
Identifier
60678, 2024-140CF
Orbit
LEO
Country
Flag of CNCN / PRC
Related business
Manufacturer
SAST
Mission
Spacecraft
Bus & Motor
Unknown
Mass
Unknown
Launch date (UTC)
2024-08-06 (2 years ago)
Launch vehicle
Unknown
Launch site
Taiyaun Space Center, China (TSC)
Object type
Payload
Rocket body
Debris
Shape & HBR
Unknown shape, 0.3 m
Radar Cross Section
Medium (>0.1 m² and <1 m²)

Expand to show TLE details & history
Last TLE update: 13 hours ago

TLE from 13 hours ago
0 CZ-6A DEB
1 60678U 24140CF  26171.31732174  .00000209  00000-0  56133-4 0  9996
2 60678  88.9088 263.6060 0070597 300.6883  58.7375 14.42999377 98073
Epoch: 2026-06-20T07:36Z
TLE epoch observation values (Epoch: 2026-06-20T07:36:56.598Z)
Latitude
-0.00004°
Longitude
-119.1635°
Altitude
725.837 km
Speed
7.506 km/s
True Right ascension
17h 34m 25s
True Declination
0° 00' 00"
Sunlit
Object was in full shadow at epoch
Visualization orbit readout
Latitude
Unknown
Longitude
Unknown
Altitude
Unknown
Speed
Unknown
Apparent Right ascension
Unknown
Apparent Declination
Unknown
Sunlit
N/A
Visualization observer readout
Local Sidereal Time
07:24:18
Azimuth
Unknown
Elevation
Unknown
Doppler factor
Unknown
Orbital elements
Apogee altitude
795.815 km
Perigee altitude
695.233 km
Semi-major axis
7,123.661 km
Eccentricity
0.00706
Inclination
88.9088°
RAAN
263.606°
Arg. of periapsis
300.6883°
True anomaly
59.43218°
Mean anomaly
58.7375°
Eccentric anomaly
59.08452°
Mean motion
3.60984 °/min
Orbital period
99.73 mins
BSTAR
0.000056133
Loading maneuver chart data...
Computing Atmospheric mass density...
Loading historical data...
Loading historical data...
Loading historical data...
Loading historical data...
Loading historical data...
Loading historical data...
Loading historical data...

Documentation

Showing up to 5 results
|